AC0UD Weather Reports


Display with metric or nautical units.
time (UTC)temp
F
wind
direction
speed
MPH
gust
MPH
rain 1hr
in
rain 24hr
in
rain mn
in
humidity
%
barometer
mb
20240722133040 73 42 1.0 2.0 0.00 0.02 0.00 77 1019.8
20240722132020 73 33 1.0 3.0 0.00 0.02 0.00 75 1019.7
20240722131020 72 45 1.0 3.0 0.00 0.02 0.00 77 1019.8
20240722130018 72 39 1.0 2.0 0.00 0.02 0.00 78 1019.6
20240722125017 72 49 1.0 2.0 0.00 0.02 0.00 79 1019.5
20240722124023 72 29 0.0 1.0 0.00 0.02 0.00 79 1019.6
20240722123041 71 33 0.0 1.0 0.00 0.02 0.00 79 1019.6
20240722122018 70 13 2.0 5.0 0.00 0.02 0.00 81 1019.6
20240722121021 70 12 2.0 5.0 0.00 0.02 0.00 82 1019.6
20240722120018 69 360 3.0 8.0 0.00 0.02 0.00 85 1019.5
20240722115018 69 4 2.0 4.0 0.00 0.02 0.00 88 1019.6
20240722114018 69 14 1.0 4.0 0.00 0.02 0.00 88 1019.7
20240722113019 69 22 1.0 3.0 0.00 0.02 0.00 86 1019.7
20240722112023 69 12 0.0 1.0 0.00 0.02 0.00 86 1019.8
20240722111019 69 310 0.0 1.0 0.00 0.02 0.00 87 1019.7
20240722110021 69 11 1.0 2.0 0.00 0.02 0.00 87 1019.7
20240722105020 69 16 1.0 2.0 0.00 0.02 0.00 87 1019.6
20240722104019 69 28 1.0 2.0 0.00 0.02 0.00 88 1019.7
20240722103023 69 10 1.0 3.0 0.00 0.02 0.00 89 1019.7
20240722102017 69 208 1.0 4.0 0.00 0.02 0.00 88 1019.7
20240722101017 69 31 1.0 3.0 0.00 0.02 0.00 87 1019.6
20240722100021 69 22 1.0 2.0 0.00 0.02 0.00 86 1019.6
20240722095018 69 4 0.0 1.0 0.00 0.02 0.00 87 1019.7
20240722094020 69 7 1.0 2.0 0.00 0.02 0.00 88 1019.8
20240722093038 69 0 0.0 2.0 0.00 0.02 0.00 88 1019.9
20240722092021 69 21 0.0 2.0 0.00 0.02 0.00 88 1020.0
20240722091018 69 8 1.0 3.0 0.00 0.02 0.00 87 1020.0
20240722090019 69 16 1.0 4.0 0.00 0.02 0.00 87 1020.0
20240722085019 69 12 1.0 3.0 0.00 0.02 0.00 87 1020.0
20240722084019 69 9 2.0 3.0 0.00 0.02 0.00 87 1020.0
20240722083019 69 11 2.0 4.0 0.00 0.02 0.00 86 1019.9
20240722082019 69 3 1.0 3.0 0.00 0.02 0.00 86 1020.0
20240722081022 69 21 1.0 3.0 0.00 0.02 0.00 86 1020.1
20240722080021 69 193 1.0 3.0 0.00 0.02 0.00 86 1020.0
20240722075037 70 214 1.0 4.0 0.00 0.02 0.00 84 1020.1
20240722074017 71 236 2.0 4.0 0.00 0.02 0.00 80 1020.1
20240722073020 71 238 2.0 4.0 0.00 0.02 0.00 76 1020.2
20240722072021 71 233 2.0 4.0 0.00 0.02 0.00 79 1020.3
20240722071039 71 241 1.0 3.0 0.00 0.02 0.00 76 1020.4
20240722070018 71 240 1.0 3.0 0.00 0.02 0.00 79 1020.5
20240722065018 71 240 1.0 3.0 0.00 0.02 0.00 77 1020.7
20240722064019 71 240 1.0 3.0 0.00 0.02 0.00 75 1020.8
20240722063018 71 244 1.0 2.0 0.00 0.02 0.00 77 1020.9
20240722062020 71 28 1.0 2.0 0.00 0.02 0.00 78 1021.0
20240722061018 71 253 1.0 2.0 0.00 0.02 0.00 76 1021.1
20240722060019 71 248 1.0 2.0 0.00 0.02 0.00 77 1021.1
20240722055019 71 256 1.0 2.0 0.00 0.02 0.00 78 1021.3
20240722054019 71 305 1.0 3.0 0.00 0.02 0.00 78 1021.3
20240722053021 71 262 1.0 2.0 0.00 0.02 0.00 78 1021.3
20240722052037 71 230 1.0 5.0 0.00 0.02 0.00 79 1021.3
20240722051037 71 148 1.0 2.0 0.00 0.02 0.00 79 1021.3
20240722050100 71 38 1.0 2.0 0.00 0.02 0.00 79 1021.3
20240722045020 71 32 1.0 2.0 0.00 0.02 0.02 78 1021.3
20240722044018 71 335 1.0 2.0 0.00 0.02 0.02 78 1021.3
20240722043017 71 38 1.0 2.0 0.00 0.02 0.02 78 1021.4
20240722042017 72 212 2.0 3.0 0.00 0.02 0.02 79 1021.3
20240722041018 72 28 1.0 2.0 0.00 0.02 0.02 78 1021.2
20240722040018 72 21 1.0 2.0 0.00 0.02 0.02 79 1021.3
20240722035018 72 40 1.0 3.0 0.00 0.02 0.02 79 1021.3
20240722034103 72 32 1.0 2.0 0.00 0.02 0.02 80 1021.5
20240722033019 72 322 1.0 2.0 0.00 0.02 0.02 80 1021.4
20240722032019 73 277 1.0 3.0 0.00 0.02 0.02 79 1021.3
20240722031019 73 34 1.0 3.0 0.00 0.02 0.02 78 1021.2
20240722030020 73 33 1.0 4.0 0.00 0.02 0.02 77 1021.3
20240722025017 73 31 1.0 3.0 0.00 0.02 0.02 77 1021.3
20240722024016 73 101 1.0 3.0 0.00 0.02 0.02 76 1021.3
20240722023020 73 200 2.0 4.0 0.00 0.02 0.02 76 1021.4
20240722022020 74 316 1.0 3.0 0.00 0.02 0.02 75 1021.3
20240722021023 74 257 1.0 4.0 0.00 0.02 0.02 75 1021.1
20240722020020 74 228 2.0 5.0 0.00 0.02 0.02 74 1021.1
20240722015018 74 37 1.0 3.0 0.00 0.02 0.02 74 1021.1
20240722014018 74 229 1.0 3.0 0.00 0.02 0.02 75 1021.0
20240722013018 74 216 3.0 8.0 0.00 0.02 0.02 75 1021.1
20240722012038 75 221 2.0 7.0 0.00 0.02 0.02 75 1021.1
20240722011018 75 222 4.0 11.0 0.00 0.02 0.02 75 1021.1
20240722010018 75 220 4.0 9.0 0.00 0.02 0.02 74 1021.1
20240722005039 75 220 5.0 12.0 0.00 0.02 0.02 74 1021.1
20240722004020 76 224 4.0 9.0 0.00 0.02 0.02 74 1020.9
20240722003019 76 225 2.0 7.0 0.00 0.02 0.02 73 1020.8
20240722002019 77 219 4.0 9.0 0.00 0.02 0.02 72 1020.7
20240722001016 78 36 1.0 6.0 0.00 0.02 0.02 70 1020.6
20240722000020 78 343 1.0 3.0 0.00 0.02 0.02 68 1020.6
20240721235019 79 30 1.0 3.0 0.00 0.02 0.02 68 1020.6
20240721234020 79 37 1.0 2.0 0.00 0.02 0.02 67 1020.6
20240721233025 79 26 1.0 3.0 0.00 0.02 0.02 67 1020.5
20240721232017 80 39 1.0 3.0 0.00 0.02 0.02 67 1020.5
20240721231017 81 178 1.0 4.0 0.00 0.02 0.02 66 1020.7
20240721230021 83 45 0.0 5.0 0.00 0.02 0.02 61 1020.8
20240721225021 83 7 0.0 5.0 0.00 0.02 0.02 60 1021.0
20240721224021 81 46 2.0 9.0 0.00 0.02 0.02 64 1021.1
20240721223018 78 44 2.0 12.0 0.00 0.02 0.02 69 1021.3
20240721222018 78 15 1.0 3.0 0.00 0.02 0.02 69 1021.3
20240721221019 78 33 0.0 1.0 0.00 0.02 0.02 68 1021.3
20240721220019 78 76 0.0 2.0 0.00 0.02 0.02 69 1021.5
20240721215019 78 87 1.0 3.0 0.00 0.02 0.02 69 1021.5
20240721214019 78 92 1.0 7.0 0.00 0.02 0.02 69 1021.7
20240721213016 78 152 1.0 3.0 0.00 0.02 0.02 69 1021.9
20240721212019 78 13 1.0 3.0 0.00 0.02 0.02 69 1022.0
20240721211020 78 214 1.0 4.0 0.00 0.02 0.02 69 1022.1
20240721210020 78 257 1.0 3.0 0.00 0.02 0.02 69 1022.2
20240721205104 77 76 1.0 5.0 0.00 0.02 0.02 70 1022.2
20240721204018 76 6 1.0 3.0 0.00 0.02 0.02 72 1022.2
20240721203017 76 3 1.0 3.0 0.00 0.02 0.02 72 1022.2
20240721202018 76 353 1.0 5.0 0.00 0.02 0.02 72 1022.3
20240721201017 75 295 1.0 3.0 0.00 0.02 0.02 74 1022.3
20240721200018 75 18 1.0 4.0 0.00 0.02 0.02 74 1022.3
20240721195019 75 356 1.0 3.0 0.00 0.02 0.02 73 1022.5
20240721194019 74 25 1.0 3.0 0.00 0.02 0.02 76 1022.6
20240721193019 73 26 2.0 4.0 0.00 0.02 0.02 76 1022.6
20240721192020 73 36 1.0 4.0 0.00 0.02 0.02 76 1022.6
20240721191020 73 33 2.0 4.0 0.00 0.02 0.02 76 1022.8
20240721190022 72 45 1.0 3.0 0.00 0.02 0.02 79 1022.9
20240721185019 73 252 1.0 4.0 0.00 0.02 0.02 77 1022.9
20240721184019 72 30 1.0 3.0 0.00 0.02 0.02 77 1022.9
20240721183023 72 29 1.0 3.0 0.00 0.02 0.02 76 1022.9
20240721182020 70 36 1.0 3.0 0.00 0.02 0.02 79 1022.8
20240721181020 69 331 1.0 2.0 0.00 0.02 0.02 81 1022.8
20240721180022 68 284 1.0 2.0 0.00 0.02 0.02 85 1022.8
20240721175017 67 215 2.0 4.0 0.00 0.02 0.02 85 1022.8
20240721174017 67 243 1.0 4.0 0.00 0.02 0.02 87 1022.8
20240721173020 66 218 2.0 5.0 0.01 0.02 0.02 87 1023.1
20240721172026 66 212 2.0 4.0 0.01 0.02 0.02 88 1023.2
20240721171018 65 224 3.0 6.0 0.01 0.02 0.02 88 1023.4
20240721170018 65 218 4.0 8.0 0.01 0.02 0.02 91 1023.6
20240721165018 65 210 6.0 9.0 0.01 0.02 0.02 92 1023.8
20240721164021 65 208 6.0 9.0 0.01 0.02 0.02 91 1024.0
20240721163019 65 114 3.0 9.0 0.01 0.01 0.01 89 1024.2
20240721162019 65 173 2.0 6.0 0.00 0.01 0.01 89 1024.0
20240721161019 65 185 4.0 8.0 0.00 0.01 0.01 89 1024.0
20240721160039 66 206 4.0 7.0 0.00 0.01 0.01 89 1023.7
20240721155020 68 31 5.0 10.0 0.01 0.01 0.01 90 1023.8
20240721154019 69 22 0.0 1.0 0.01 0.01 0.01 91 1023.3
20240721153019 69 24 0.0 1.0 0.01 0.01 0.01 90 1023.1
20240721152018 69 9 0.0 1.0 0.01 0.01 0.01 90 1023.4
20240721151017 68 36 1.0 2.0 0.01 0.01 0.01 89 1023.3
20240721150020 68 214 2.0 4.0 0.01 0.01 0.01 85 1023.3
20240721145038 69 15 3.0 8.0 0.00 0.00 0.00 84 1023.1
20240721144017 70 44 3.0 6.0 0.00 0.00 0.00 89 1023.1
20240721143018 70 35 2.0 4.0 0.00 0.00 0.00 89 1022.7
20240721142018 70 47 3.0 4.0 0.00 0.00 0.00 88 1022.7
20240721141039 70 20 4.0 7.0 0.00 0.00 0.00 84 1022.8
20240721140019 70 10 2.0 5.0 0.00 0.00 0.00 88 1022.9
20240721135019 71 20 1.0 2.0 0.00 0.00 0.00 86 1022.9
20240721134019 72 53 3.0 5.0 0.00 0.00 0.00 83 1022.9